K4AXV-13 Weather Reports


time (UTC)temp
C
wind
direction
speed
KPH
gust
KPH
rain 1hr
cm
rain 24hr
cm
rain mn
cm
humidity
%
barometer
mb
20260905203155 33 113 0.0 1.6 0.00 0.00 0.00
20260905202653 33 131 1.6 3.2 0.00 0.00 0.00
20260905195651 33 115 1.6 1.6 0.00 0.00 0.00
20260905195153 33 153 3.2 1.6 0.00 0.00 0.00
20260905194651 33 93 6.4 6.4 0.00 0.00 0.00
20260905192650 33 87 3.2 3.2 0.00 0.00 0.00
20260905192151 33 55 0.0 0.0 0.00 0.00 0.00
20260905191650 33 83 3.2 1.6 0.00 0.00 0.00
20260905191151 33 108 6.4 6.4 0.00 0.00 0.00
20260905190649 33 66 1.6 1.6 0.00 0.00 0.00
20260905190151 34 129 6.4 4.8 0.00 0.00 0.00
20260905185649 34 233 0.0 0.0 0.00 0.00 0.00
20260905185150 34 243 0.0 0.0 0.00 0.00 0.00
20260905184649 35 243 3.2 0.0 0.00 0.00 0.00
20260905184150 34 191 4.8 3.2 0.00 0.00 0.00
20260905183150 34 329 1.6 0.0 0.00 0.00 0.00
20260905182648 34 243 1.6 0.0 0.00 0.00 0.00
20260905182149 33 139 0.0 1.6 0.00 0.00 0.00
20260905181149 33 97 1.6 1.6 0.00 0.00 0.00
20260905180647 33 211 0.0 0.0 0.00 0.00 0.00
20260905175645 33 359 1.6 3.2 0.00 0.00 0.00
20260905175146 33 80 3.2 1.6 0.00 0.00 0.00
20260905174644 33 249 1.6 1.6 0.00 0.00 0.00
20260905173642 33 96 3.2 1.6 0.00 0.00 0.00
20260905173143 33 91 0.0 1.6 0.00 0.00 0.00
20260905172641 33 325 3.2 1.6 0.00 0.00 0.00
20260905171640 33 257 1.6 0.0 0.00 0.00 0.00
20260905170640 33 46 1.6 0.0 0.00 0.00 0.00
20260905165639 32 100 1.6 1.6 0.00 0.00 0.00
20260905164639 33 311 6.4 3.2 0.00 0.00 0.00
20260905164140 33 329 4.8 6.4 0.00 0.00 0.00
20260905163638 32 255 4.8 4.8 0.00 0.00 0.00
20260905163139 32 219 1.6 4.8 0.00 0.00 0.00
20260905162139 32 329 4.8 4.8 0.00 0.00 0.00
20260905161637 32 359 3.2 4.8 0.00 0.00 0.00
20260905161138 32 323 1.6 6.4 0.00 0.00 0.00
20260905160637 32 231 3.2 3.2 0.00 0.00 0.00
20260905160138 32 1 3.2 6.4 0.00 0.00 0.00
20260905155636 32 197 4.8 1.6 0.00 0.00 0.00
20260905154636 31 285 3.2 11.3 0.00 0.00 0.00
20260905154137 31 326 3.2 1.6 0.00 0.00 0.00
20260905153635 31 339 0.0 6.4 0.00 0.00 0.00
20260905153136 31 238 3.2 3.2 0.00 0.00 0.00
20260905152634 31 339 3.2 4.8 0.00 0.00 0.00
20260905151634 31 1 3.2 3.2 0.00 0.00 0.00
20260905151135 31 318 4.8 3.2 0.00 0.00 0.00
20260905150135 31 3 3.2 1.6 0.00 0.00 0.00
20260905145633 30 270 0.0 0.0 0.00 0.00 0.00
20260905145134 30 252 8.0 4.8 0.00 0.00 0.00
20260905144134 30 332 1.6 1.6 0.00 0.00 0.00
20260905142630 29 277 4.8 4.8 0.00 0.00 0.00
20260905141627 28 339 3.2 1.6 0.00 0.00 0.00
20260905141128 28 3 6.4 6.4 0.00 0.00 0.00
20260905135626 28 325 3.2 4.8 0.00 0.00 0.00
20260905134128 27 248 4.8 4.8 0.00 0.00 0.00
20260905133625 27 208 1.6 0.0 0.00 0.00 0.00
20260905132625 27 297 3.2 4.8 0.00 0.00 0.00
20260905131126 27 295 3.2 4.8 0.00 0.00 0.00
20260905130101 24 332 0.0 0.0 0.00 0.00 0.00
20260905125623 27 263 1.6 0.0 0.00 0.00 0.00
20260905125124 26 198 0.0 0.0 0.00 0.00 0.00
20260905124123 26 312 3.2 1.6 0.00 0.00 0.00
20260905123620 26 318 0.0 1.6 0.00 0.00 0.00
20260905123152 26 329 1.6 4.8 0.00 0.00 0.00
20260905123121 26 329 1.6 4.8 0.00 0.00 0.00
20260905122120 26 305 1.6 0.0 0.00 0.00 0.00
20260905121618 26 308 0.0 0.0 0.00 0.00 0.00
20260905120702 25 316 0.0 0.0 0.00 0.00 0.00
20260905120616 25 316 0.0 0.0 0.00 0.00 0.00
20260905120117 26 316 0.0 0.0 0.00 0.00 0.00
20260905115737 25 316 0.0 0.0 0.00 0.00 0.00
20260905115614 25 316 0.0 0.0 0.00 0.00 0.00
20260905114613 25 316 0.0 0.0 0.00 0.00 0.00
20260905114337 25 316 0.0 0.0 0.00 0.00 0.00
20260905114115 25 316 0.0 0.0 0.00 0.00 0.00
20260905111609 24 273 0.0 0.0 0.00 0.00 0.00
20260905110605 23 318 0.0 0.0 0.00 0.00 0.00
20260905110105 23 318 0.0 0.0 0.00 0.00 0.00
20260905105602 23 332 0.0 0.0 0.00 0.00 0.00
20260905105103 23 332 0.0 0.0 0.00 0.00 0.00
20260905104102 23 332 0.0 0.0 0.00 0.00 0.00
20260905102559 23 332 0.0 0.0 0.00 0.00 0.00
20260905102100 23 332 0.0 0.0 0.00 0.00 0.00
20260905101100 23 332 0.0 0.0 0.00 0.00 0.00
20260905100059 23 332 0.0 0.0 0.00 0.00 0.00
20260905095557 23 332 0.0 0.0 0.00 0.00 0.00
20260905094555 23 332 0.0 0.0 0.00 0.00 0.00
20260905094057 23 332 0.0 0.0 0.00 0.00 0.00
20260905093554 23 332 0.0 0.0 0.00 0.00 0.00
20260905093056 23 332 0.0 0.0 0.00 0.00 0.00
20260905092552 23 332 0.0 0.0 0.00 0.00 0.00
20260905091550 23 332 0.0 0.0 0.00 0.00 0.00
20260905091051 23 332 0.0 0.0 0.00 0.00 0.00
20260905090548 23 332 0.0 0.0 0.00 0.00 0.00
20260905090049 23 332 0.0 0.0 0.00 0.00 0.00
20260905085546 23 332 0.0 0.0 0.00 0.00 0.00
20260905085047 23 332 0.0 0.0 0.00 0.00 0.00
20260905084544 24 332 0.0 0.0 0.00 0.00 0.00
20260905083542 24 332 0.0 0.0 0.00 0.00 0.00
20260905083041 24 332 0.0 0.0 0.00 0.00 0.00
20260905082538 23 332 0.0 0.0 0.00 0.00 0.00
20260905082040 24 332 0.0 0.0 0.00 0.00 0.00
20260905081538 23 332 0.0 0.0 0.00 0.00 0.00
20260905081039 24 332 0.0 0.0 0.00 0.00 0.00
20260905075534 24 332 0.0 0.0 0.00 0.00 0.00
20260905073529 24 332 0.0 0.0 0.00 0.00 0.00
20260905072026 24 7 0.0 0.0 0.00 0.00 0.00
20260905071523 24 7 0.0 0.0 0.00 0.00 0.00
20260905071024 24 7 0.0 0.0 0.00 0.00 0.00
20260905070522 24 7 0.0 0.0 0.00 0.00 0.00
20260905070023 25 7 0.0 0.0 0.00 0.00 0.00
20260905065520 24 7 0.0 0.0 0.00 0.00 0.00
20260905065022 25 7 0.0 0.0 0.00 0.00 0.00
20260905064519 24 7 0.0 0.0 0.00 0.00 0.00
20260905064021 25 7 0.0 0.0 0.00 0.00 0.00
20260905063517 25 7 0.0 0.0 0.00 0.00 0.00
20260905063019 24 7 0.0 0.0 0.00 0.00 0.00
20260905062557 25 7 0.0 0.0 0.00 0.00 0.00
20260905062520 25 7 0.0 0.0 0.00 0.00 0.00
20260905062018 24 7 0.0 0.0 0.00 0.00 0.00
20260905061516 24 7 0.0 0.0 0.00 0.00 0.00
20260905061016 24 7 0.0 0.0 0.00 0.00 0.00
20260905060514 25 7 0.0 0.0 0.00 0.00 0.00
20260905054513 25 7 0.0 0.0 0.00 0.00 0.00
20260905053513 25 7 0.0 0.0 0.00 0.00 0.00
20260905053013 25 7 0.0 0.0 0.00 0.00 0.00
20260905052511 25 7 0.0 0.0 0.00 0.00 0.00
20260905052011 25 7 0.0 0.0 0.00 0.00 0.00
20260905051508 25 7 0.0 0.0 0.00 0.00 0.00
20260905051010 25 7 0.0 0.0 0.00 0.00 0.00
20260905050507 25 7 0.0 0.0 0.00 0.00 0.00
20260905050008 25 7 0.0 0.0 0.00 0.00 0.00
20260905045505 25 7 0.0 0.0 0.00 0.00 0.00
20260905045006 25 7 0.0 0.0 0.00 0.00 0.00
20260905044507 25 7 0.0 0.0 0.00 0.00 0.00
20260905044005 25 7 0.0 0.0 0.00 0.00 0.00
20260905043503 25 7 0.0 0.0 0.00 0.00 0.00
20260905043004 25 7 0.0 0.0 0.00 0.00 0.00
20260905042502 25 7 0.0 0.0 0.00 0.00 0.00
20260905041458 25 7 0.0 0.0 0.00 0.00 0.00
20260905040959 26 7 0.0 0.0 0.00 0.00 0.00
20260905040457 26 7 0.0 0.0 0.00 0.00 0.00
20260905035958 25 7 0.0 0.0 0.00 0.00 0.00
20260905035455 25 7 0.0 0.0 0.00 0.00 0.00
20260905035115 25 7 0.0 0.0 0.00 0.00 0.00
20260905034955 25 7 0.0 0.0 0.00 0.00 0.00
20260905034453 25 7 0.0 0.0 0.00 0.00 0.00
20260905033954 26 7 0.0 0.0 0.00 0.00 0.00
20260905033449 26 7 0.0 0.0 0.00 0.00 0.00
20260905032448 26 260 0.0 0.0 0.00 0.00 0.00
20260905031949 26 260 0.0 0.0 0.00 0.00 0.00
20260905031448 25 260 0.0 0.0 0.00 0.00 0.00
20260905030948 26 260 0.0 0.0 0.00 0.00 0.00
20260905030445 26 260 0.0 0.0 0.00 0.00 0.00
20260905025946 26 260 0.0 0.0 0.00 0.00 0.00
20260905025443 26 260 0.0 0.0 0.00 0.00 0.00
20260905024944 26 260 0.0 0.0 0.00 0.00 0.00
20260905024440 26 260 0.0 0.0 0.00 0.00 0.00
20260905023941 26 260 0.0 0.0 0.00 0.00 0.00
20260905023437 26 260 0.0 0.0 0.00 0.00 0.00
20260905023029 26 260 0.0 0.0 0.00 0.00 0.00
20260905022938 26 260 0.0 0.0 0.00 0.00 0.00
20260905022436 26 260 0.0 0.0 0.00 0.00 0.00
20260905021937 26 260 0.0 0.0 0.00 0.00 0.00
20260905021433 26 260 0.0 0.0 0.00 0.00 0.00
20260905020432 26 260 0.0 0.0 0.00 0.00 0.00
20260905015934 26 260 0.0 0.0 0.00 0.00 0.00
20260905014932 26 260 0.0 0.0 0.00 0.00 0.00
20260905014430 26 260 0.0 0.0 0.00 0.00 0.00
20260905013931 26 260 0.0 0.0 0.00 0.00 0.00
20260905013428 26 260 0.0 0.0 0.00 0.00 0.00
20260905012424 27 260 0.0 0.0 0.00 0.00 0.00
20260905011925 27 260 0.0 0.0 0.00 0.00 0.00
20260905011421 27 260 0.0 0.0 0.00 0.00 0.00
20260905010419 27 260 0.0 0.0 0.00 0.00 0.00
20260905005920 27 260 0.0 0.0 0.00 0.00 0.00
20260905005416 27 236 0.0 0.0 0.00 0.00 0.00
20260905004918 27 236 0.0 0.0 0.00 0.00 0.00
20260905004414 27 236 0.0 0.0 0.00 0.00 0.00
20260905003915 27 236 0.0 0.0 0.00 0.00 0.00
20260905003413 27 253 0.0 0.0 0.00 0.00 0.00
20260905002914 27 243 0.0 0.0 0.00 0.00 0.00
20260905001913 28 239 0.0 0.0 0.00 0.00 0.00
20260905001411 28 283 0.0 0.0 0.00 0.00 0.00
20260905000912 28 301 0.0 0.0 0.00 0.00 0.00
20260905000410 28 232 0.0 0.0 0.00 0.00 0.00
20260904235909 28 329 1.6 1.6 0.00 0.00 0.00
20260904235408 28 288 0.0 0.0 0.00 0.00 0.00
20260904234909 28 228 0.0 0.0 0.00 0.00 0.00
20260904234405 28 228 0.0 0.0 0.00 0.00 0.00
20260904233906 28 252 0.0 3.2 0.00 0.00 0.00
20260904233405 28 290 0.0 0.0 0.00 0.00 0.00
20260904232906 29 290 0.0 0.0 0.00 0.00 0.00
20260904232404 29 208 0.0 0.0 0.00 0.00 0.00
20260904231905 29 32 0.0 0.0 0.00 0.00 0.00
20260904231403 29 271 0.0 0.0 0.00 0.00 0.00
20260904230905 30 6 1.6 3.2 0.00 0.00 0.00
20260904230402 30 252 1.6 0.0 0.00 0.00 0.00
20260904225401 30 316 3.2 4.8 0.00 0.00 0.00
20260904224902 30 45 1.6 0.0 0.00 0.00 0.00
20260904224359 30 304 1.6 1.6 0.00 0.00 0.00
20260904223900 30 221 1.6 0.0 0.00 0.00 0.00
20260904222859 30 49 3.2 1.6 0.00 0.00 0.00
20260904222355 30 143 4.8 1.6 0.00 0.00 0.00
20260904221856 30 150 4.8 11.3 0.00 0.00 0.00
20260904221354 30 7 1.6 0.0 0.00 0.00 0.00
20260904220855 31 46 4.8 3.2 0.00 0.00 0.00
20260904220351 31 160 9.7 4.8 0.00 0.00 0.00
20260904215852 31 108 8.0 9.7 0.00 0.00 0.00
20260904215351 31 146 6.4 6.4 0.00 0.00 0.00
20260904214343 31 142 3.2 4.8 0.00 0.00 0.00
20260904213842 31 129 6.4 8.0 0.00 0.00 0.00
20260904213340 31 153 6.4 8.0 0.00 0.00 0.00
20260904212338 31 15 1.6 0.0 0.00 0.00 0.00
20260904210838 31 110 6.4 3.2 0.00 0.00 0.00
20260904205837 32 122 4.8 6.4 0.00 0.00 0.00
20260904205335 32 86 3.2 4.8 0.00 0.00 0.00
20260904204836 31 125 8.0 6.4 0.00 0.00 0.00
20260904204334 32 132 6.4 6.4 0.00 0.00 0.00
20260904203835 32 159 9.7 4.8 0.00 0.00 0.00